Date String (YYYY-MM-DD hh:mm:ss) UTC,Instrument flags,Ambient pressure (hPa),Sample flow (lpm),Bypass flow (lpm),Sample temperature (°C),Ambient temperature (°C),ASC tube jacket temperature (°C),LED temperature (°C),Box temperature (°C),Sample RH (%),Span deviation,Mass concentration (μg/m³),Mass concentration (μg/m³),Mass concentration (μg/m³)
DateTimeUTC,F1_M11,P_M11,Q1_M11,Q2_M11,T1_M11,T2_M11,T3_M11,T4_M11,T5_M11,U1_M11,ZSPAN_M11,X0_M11,X2_M11,X1_M11
2022-10-02 14:00:00,,0829.5,5.00,0.00,29.5,28.1,00.0,38.3,31.4,23.0,0000.0,0006.72,0003.47,0003.12
2022-10-02 14:01:00,,0829.6,4.99,0.00,29.5,28.1,00.0,38.3,31.4,22.7,0000.0,0006.73,0003.47,0003.12
2022-10-02 14:02:00,,0829.7,5.01,0.00,29.5,28.1,00.0,38.3,31.4,22.3,0000.0,0006.78,0003.50,0003.14
2022-10-02 14:03:00,,0829.8,5.00,0.00,29.5,28.0,00.0,38.3,31.3,22.2,0000.0,0006.64,0003.55,0003.18
2022-10-02 14:04:00,,0829.8,4.99,0.00,29.5,27.9,00.0,38.3,31.3,22.4,0000.0,0006.48,0003.61,0003.21
2022-10-02 14:05:00,,0829.8,5.01,0.00,29.5,27.8,00.0,38.3,31.3,22.4,0000.0,0007.19,0003.63,0003.24
2022-10-02 14:06:00,,0829.7,5.00,0.00,29.5,27.8,00.0,38.3,31.3,22.5,0000.0,0007.44,0003.67,0003.28
2022-10-02 14:07:00,,0829.7,5.00,0.00,29.5,27.9,00.0,38.3,31.3,22.4,0000.0,0007.91,0003.72,0003.31
2022-10-02 14:08:00,,0829.8,4.99,0.00,29.5,27.9,00.0,38.3,31.3,22.2,0000.0,0008.44,0003.74,0003.32
2022-10-02 14:09:00,,0829.8,4.99,0.00,29.5,27.9,00.0,38.3,31.3,22.1,0000.0,0008.49,0003.78,0003.33
2022-10-02 14:10:00,,0829.8,5.01,0.00,29.5,28.0,00.0,38.3,31.3,22.1,0000.0,0008.43,0003.81,0003.35
2022-10-02 14:11:00,,0829.8,5.00,0.00,29.5,28.0,00.0,38.2,31.3,22.0,0000.0,0008.45,0003.85,0003.36
2022-10-02 14:12:00,,0829.8,4.99,0.00,29.5,28.0,00.0,38.3,31.3,22.1,0000.0,0008.41,0003.84,0003.36
2022-10-02 14:13:00,,0829.9,5.01,0.00,29.5,28.0,00.0,38.2,31.3,22.1,0000.0,0008.34,0003.84,0003.37
2022-10-02 14:14:00,,0829.8,5.00,0.00,29.5,28.1,00.0,38.3,31.3,22.1,0000.0,0008.21,0003.81,0003.37
2022-10-02 14:15:00,,0829.9,4.99,0.00,29.5,28.1,00.0,38.3,31.3,22.1,0000.0,0008.20,0003.81,0003.38
2022-10-02 14:16:00,,0829.8,5.01,0.00,29.5,28.1,00.0,38.3,31.3,22.1,0000.0,0007.73,0003.82,0003.38
2022-10-02 14:17:00,,0829.8,5.00,0.00,29.5,28.1,00.0,38.3,31.4,22.1,0000.0,0007.71,0003.84,0003.39
2022-10-02 14:18:00,,0829.8,4.98,0.00,29.5,28.1,00.0,38.3,31.3,22.1,0000.0,0007.10,0003.82,0003.39
2022-10-02 14:19:00,,0829.8,5.01,0.00,29.5,28.1,00.0,38.3,31.4,22.1,0000.0,0006.19,0003.80,0003.40
2022-10-02 14:20:00,,0829.7,5.00,0.00,29.5,28.1,00.0,38.3,31.4,22.0,0000.0,0006.18,0003.80,0003.41
2022-10-02 14:21:00,,0829.7,5.00,0.00,29.5,28.1,00.0,38.3,31.3,22.0,0000.0,0006.34,0003.83,0003.42
2022-10-02 14:22:00,,0829.7,5.01,0.00,29.5,28.1,00.0,38.3,31.3,22.1,0000.0,0007.44,0003.84,0003.43
2022-10-02 14:23:00,,0829.7,4.98,0.00,29.5,28.1,00.0,38.3,31.4,22.3,0000.0,0007.62,0003.86,0003.44
2022-10-02 14:24:00,,0829.8,5.01,0.00,29.5,28.1,00.0,38.3,31.4,22.3,0000.0,0007.68,0003.88,0003.44
2022-10-02 14:25:00,,0829.8,4.99,0.00,29.5,28.1,00.0,38.3,31.3,22.3,0000.0,0007.84,0003.90,0003.44
2022-10-02 14:26:00,,0829.8,5.00,0.00,29.5,28.1,00.0,38.3,31.3,22.3,0000.0,0008.16,0003.92,0003.45
2022-10-02 14:27:00,,0829.7,5.01,0.00,29.5,28.1,00.0,38.3,31.4,22.2,0000.0,0008.16,0003.93,0003.46
2022-10-02 14:28:00,,0829.7,4.99,0.00,29.5,28.1,00.0,38.3,31.4,22.2,0000.0,0008.24,0003.92,0003.46
2022-10-02 14:29:00,,0829.7,5.01,0.00,29.5,28.1,00.0,38.3,31.3,22.2,0000.0,0008.24,0003.91,0003.47
2022-10-02 14:30:00,,0829.8,4.99,0.00,29.5,28.1,00.0,38.3,31.3,22.2,0000.0,0008.25,0003.92,0003.47
2022-10-02 14:31:00,,0829.8,5.00,0.00,29.5,28.1,00.0,38.3,31.4,22.0,0000.0,0008.22,0003.90,0003.47
2022-10-02 14:32:00,,0829.8,5.00,0.00,29.5,28.1,00.0,38.3,31.4,21.9,0000.0,0008.10,0003.85,0003.46
2022-10-02 14:33:00,,0829.8,5.00,0.00,29.5,28.1,00.0,38.3,31.4,21.8,0000.0,0007.51,0003.84,0003.45
2022-10-02 14:34:00,,0829.8,5.01,0.00,29.5,28.1,00.0,38.3,31.4,21.9,0000.0,0007.36,0003.84,0003.44
2022-10-02 14:35:00,,0829.9,4.99,0.00,29.5,28.1,00.0,38.3,31.4,22.4,0000.0,0007.35,0003.83,0003.42
2022-10-02 14:36:00,,0829.9,5.01,0.00,29.5,28.1,00.0,38.3,31.4,23.0,0000.0,0007.14,0003.83,0003.42
2022-10-02 14:37:00,,0829.9,5.00,0.00,29.5,28.1,00.0,38.3,31.4,22.8,0000.0,0006.79,0003.86,0003.42
2022-10-02 14:38:00,,0829.8,4.99,0.00,29.5,28.1,00.0,38.3,31.4,23.2,0000.0,0007.00,0003.90,0003.43
2022-10-02 14:39:00,,0829.7,5.01,0.00,29.5,28.0,00.0,38.3,31.4,23.4,0000.0,0006.77,0003.92,0003.43
2022-10-02 14:40:00,,0829.8,4.99,0.00,29.5,28.0,00.0,38.3,31.4,23.2,0000.0,0007.00,0003.95,0003.45
2022-10-02 14:41:00,,0829.7,5.00,0.00,29.5,28.0,00.0,38.3,31.3,22.7,0000.0,0007.20,0003.94,0003.47
2022-10-02 14:42:00,,0829.7,5.01,0.00,29.5,28.0,00.0,38.3,31.3,22.8,0000.0,0007.15,0003.94,0003.49
2022-10-02 14:43:00,,0829.7,5.00,0.00,29.5,28.0,00.0,38.3,31.4,22.8,0000.0,0007.22,0003.94,0003.50
2022-10-02 14:44:00,,0829.7,5.00,0.00,29.5,28.0,00.0,38.3,31.4,22.7,0000.0,0007.13,0003.94,0003.51
2022-10-02 14:45:00,,0829.7,5.00,0.00,29.5,28.0,00.0,38.3,31.4,22.6,0000.0,0007.07,0003.95,0003.53
2022-10-02 14:46:00,,0829.7,4.99,0.00,29.5,28.1,00.0,38.3,31.4,22.6,0000.0,0007.06,0003.96,0003.55
2022-10-02 14:47:00,,0829.8,5.00,0.00,29.5,28.0,00.0,38.3,31.4,22.6,0000.0,0007.10,0003.98,0003.56
2022-10-02 14:48:00,,0829.7,5.00,0.00,29.5,28.0,00.0,38.3,31.4,23.0,0000.0,0007.05,0003.97,0003.57
2022-10-02 14:49:00,,0829.7,4.99,0.00,29.5,28.0,00.0,38.3,31.4,23.4,0000.0,0006.95,0003.92,0003.57
2022-10-02 14:50:00,,0829.7,5.01,0.00,29.5,28.1,00.0,38.3,31.3,23.6,0000.0,0007.14,0003.92,0003.58
2022-10-02 14:51:00,,0829.7,5.00,0.00,29.5,28.1,00.0,38.3,31.4,23.3,0000.0,0007.64,0003.92,0003.58
2022-10-02 14:52:00,,0829.7,4.99,0.00,29.5,28.1,00.0,38.3,31.4,22.7,0000.0,0007.71,0003.91,0003.57
2022-10-02 14:53:00,,0829.7,5.00,0.00,29.5,28.1,00.0,38.3,31.4,22.5,0000.0,0007.73,0003.91,0003.55
2022-10-02 14:54:00,,0829.7,5.01,0.00,29.5,28.1,00.0,38.3,31.4,23.1,0000.0,0007.64,0003.90,0003.54
2022-10-02 14:55:00,,0829.7,4.99,0.00,29.5,28.1,00.0,38.3,31.4,23.4,0000.0,0007.63,0003.90,0003.54
2022-10-02 14:56:00,,0829.7,5.00,0.00,29.5,28.1,00.0,38.3,31.4,22.6,0000.0,0007.71,0003.93,0003.54
2022-10-02 14:57:00,,0829.8,5.00,0.00,29.5,28.1,00.0,38.3,31.4,22.1,0000.0,0007.78,0003.95,0003.54
2022-10-02 14:58:00,,0829.8,5.01,0.00,29.5,28.1,00.0,38.3,31.4,21.9,0000.0,0007.81,0003.95,0003.53
2022-10-02 14:59:00,,0829.8,4.99,0.00,29.5,28.1,00.0,38.3,31.4,21.5,0000.0,0007.83,0003.94,0003.51
